Regional Weather Roundup
Issued by NWS State College, PA

Home | Current Version | Previous Version | Graphics & Text | Print | Product List | Glossary Off
Versions: 1 2 3 4 5 6 7 8 9 10 11 12 13 14 15 16 17 18 19 20 21 22 23 24 25 26 27 28 29 30 31 32 33 34 35 36 37 38 39 40 41 42 43 44 45 46 47 48 49 50

000
ASUS41 KCTP 252310
RWRCTP

REGIONAL WEATHER ROUNDUP
NATIONAL WEATHER SERVICE STATE COLLEGE PA
700 PM EDT TUE APR 25 2017

Note: "fair" indicates few or no clouds below 12,000 feet with no
significant weather and/or obstructions to visibility.

* = STATION THAT DOES NOT REPORT PRECIPITATION /E.G. RAIN...SNOW...ETC/
    THUNDER OR FOG.

PAZ002>004-007>009-013>016-020>023-029>032-260000-
WESTERN PENNSYLVANIA

CITY           SKY/WX    TMP DP  RH WIND       PRES   REMARKS
ERIE           CLOUDY    68  53  58 E10       29.80S
MEADVILLE      CLOUDY    63  54  72 VRB7      29.82F
FRANKLIN*      CLOUDY    61  52  72 E13       29.84F
NEW CASTLE     CLOUDY    62  56  80 E8        29.82F
BEAVER COUNTY  CLOUDY    59  55  88 SE8       29.82S
BUTLER*        CLOUDY    57  55  94 E9        29.83F
PITTSBURGH INT CLOUDY    59  57  93 E10       29.81S
PITTSBURGH     CLOUDY    58  53  84 E7        29.81S
INDIANA*       CLOUDY    57  54  88 E5G12     29.85F
LATROBE        CLOUDY    57  54  88 E9        29.83S
WASHINGTON CO* CLOUDY    59  54  82 E9        29.82S
$$

PAZ004>006-010>012-017>019-024>028-033>037-041-042-045-046-049>053-260000-
CENTRAL PENNSYLVANIA

CITY           SKY/WX    TMP DP  RH WIND       PRES   REMARKS
BRADFORD       LGT RAIN  59  52  77 E6        29.86F
DUBOIS         LGT RAIN  55  52  89 E6        29.84S FOG
CLEARFIELD     LGT RAIN  56  54  93 NE7       29.84F
JOHNSTOWN      LGT RAIN  52  52 100 E6        29.82R FOG
ALTOONA        CLOUDY    56  54  93 NE9       29.82S FOG
STATE COLLEGE  LGT RAIN  54  52  94 NE12      29.84S FOG
WILLIAMSPORT   LGT RAIN  59  53  80 E7        29.85F
SELINSGROVE    LGT RAIN  57  55  93 NE9       29.84F
FT INDIANTOWN  LGT RAIN  56  56 100 NE7       29.81F
CAPITAL CITY   CLOUDY    58  53  84 E14       29.81F
HARRISBURG     CLOUDY    58  55  90 E10       29.80S
YORK           CLOUDY    57  56  96 E10       29.79F FOG
$$

PAZ038>040-043-044-047-048-054-055-060>062-067>071-260000-
EASTERN PENNSYLVANIA

CITY           SKY/WX    TMP DP  RH WIND       PRES   REMARKS
SCRANTON       CLOUDY    56  51  84 NE13      29.89F
MOUNT POCONO   RAIN      49  49 100 E13G22    29.91S FOG
ALLENTOWN      LGT RAIN  56  53  90 E12       29.87S FOG
QUAKERTOWN*    CLOUDY    55  55 100 E9G17     29.86F
READING        LGT RAIN  56  56 100 N5        29.82F FOG
LANCASTER      CLOUDY    58  57  97 E16       29.79F
COATESVILLE    CLOUDY    55  55 100 E15G26    29.82S FOG
POTTSTOWN      LGT RAIN  55  53  93 E12G20    29.84S FOG
BLUE BELL      CLOUDY    54  54 100 E13G22    29.84F
DOYLESTOWN     LGT RAIN  54  54 100 VRB6      29.85S FOG
WILLOW GROVE   NOT AVBL
NORTH PHILA    LGT RAIN  57  55  93 NE14      29.85F FOG
PHILADELPHIA   CLOUDY    56  54  93 NE16G25   29.81F
$$




USA.gov is the U.S. government's official web portal to all federal, state and local government web resources and services.